OneWeb SL0700

operational
NORAD ID: 61606 Int'l Des: 2024-188 Owner: ONEWEBE Country: UK Constellation: oneweb
LEOCIRCULARPOLARONEWEB_TYPE

Über OneWeb SL0700

Beschreibung wird geladen...

Live-Position

3D-Globus wird geladen...

Nächste Überflüge

Höhenverlauf

Altitude vs Time

uPlot chart will show altitude changes over time

Zweizeiliger Elementsatz

1 61606U 24188N 26033.52254687 .00000683 00000-0 19211-2 0 9998
2 61606 87.8775 62.9890 0002244 112.4179 247.7186 13.10379393 65661
Epoch: 2. Feb. 2026 • Age: 17 hours

Aktueller Status

Höhe 1232.2 km
Geschwindigkeit 7.25 km/s
Subsatellitenpunkt 70.31°N, 19.64°E
Startdatum 20. Okt. 2024
Alter 1.2 years
Typ internet

Technische Details

Klassifizierung Payload
Masse 148.00 kg
Trockenmasse 140.00 kg
Gesamtmasse 148.00 kg
Länge 1.30 m
Durchmesser 1.00 m
Spannweite 5.00 m
Form Trapezoid+2 pan
Hersteller ONEWUS
Bus-Typ ARROW
Phasenstatus In Orbit
Besitzer/Staat ONEWEBE/UK

Große Konstellationen

Loading constellations...